Location: Christianberg
(48.9086°N, 14.0209°E)
Time: 20:14:59
(UTC+00:00)

FENGYUN 1C DEB - Pass Details

Date: 07 February 2022
Orbit: 832 x 1169 km, 98.6° (Epoch: 21 May)

Event Time Altitude Azimuth Distance (km) Brightness Sun altitude
Rises 16:39:59 0° 13° (NNE) 3,613 ? -5.3°
Reaches altitude 10° 16:42:21 10° 13° (NNE) 2,709 ? -5.7°
Maximum altitude 16:48:28 83° 287° (WNW) 1,039 ? -6.6°
Drops below altitude 10° 16:55:06 10° 201° (SSW) 2,927 ? -7.7°
Sets 16:57:44 0° 200° (SSW) 3,921 ? -8.1°
